Home   Weather   Kitakyushu   Past weeks
Flag for Japan

Past Weather in Kitakyushu, Japan — Yesterday and Last 2 Weeks

Now
52 °F

Rain showers. Fog.


Feels Like: 49 °F
Forecast: 54 / 45 °F
Wind: 7 mph from East

Location: Kitakyushu Airport

Current Time: Feb 19, 2019 at 12:07:54 pm

Latest Report: Feb 19, 2019 at 11:29 am


Visibility: 2 mi

Pressure: 29.92 "Hg

Humidity: 88%

Dew Point: 48 °F

Location of KitakyushuLocation

Past Weather in Kitakyushu — Graph

°F

Kitakyushu Temperature Yesterday

Maximum temperature yesterday: 50 °F (at 7:00 pm)
Minimum temperature yesterday: 36 °F (at 2:00 am)
Average temperature yesterday: 44 °F

High & Low Weather Summary for the Past Weeks

 TemperatureHumidityPressure
High55 °F (Feb 4, 11:00 am)94% (Feb 19, 7:14 am)30.48 "Hg (Feb 19, 7:14 am)
Low36 °F (Feb 18, 2:00 am)34% (Feb 17, 12:00 pm)29.92 "Hg (Feb 19, 10:00 am)
Average46 °F66%30.18 "Hg
* Reported Feb 4 10:00 am — Feb 19 10:18 am, Kitakyushu. Weather by CustomWeather, © 2019

Note: Actual official high and low records may vary slightly from our data, if they occured in-between our weather recording intervals... More about our weather records

Advertising

Kitakyushu Weather History for the Previous 24 Hours

Scroll right to see more
 ConditionsComfort  
Time TempWeatherWind HumidityBarometerVisibility
10:18 am
Tue, Feb 19
50 °FSprinkles. Fog.18 mph88%29.92 "Hg2 mi
10:00 am50 °FRain showers. Fog.16 mph88%29.92 "Hg1 mi
9:00 am50 °FSprinkles. Fog.17 mph88%29.95 "Hg3 mi
8:40 am50 °FSprinkles. Fog.17 mph88%29.98 "Hg2 mi
8:27 am50 °FRain showers. Fog.15 mph88%29.98 "Hg1 mi
8:00 am50 °FRain. Fog.14 mph88%29.98 "Hg1 mi
7:14 am48 °FLight rain. Fog.13 mph94%30.04 "Hg1 mi
6:35 am48 °FLight rain. Fog.8 mph87%30.07 "Hg2 mi
6:00 am48 °FRain. Partly cloudy.9 mph87%30.07 "Hg3 mi
5:00 am45 °FRain. Passing clouds.5 mph87%30.09 "Hg4 mi
4:44 am45 °FRain. Passing clouds.3 mph87%30.09 "Hg4 mi
4:00 am45 °FLight rain. Partly cloudy.5 mph87%30.12 "Hg5 mi
3:00 am46 °FLight rain. Partly cloudy.1 mph82%30.15 "HgN/A
2:00 am46 °FLight rain. Partly cloudy.2 mph76%30.18 "Hg5 mi
1:00 am46 °FLight rain. Passing clouds.1 mph71%30.18 "HgN/A
12:00 am48 °FLight rain. Mostly cloudy.3 mph66%30.21 "HgN/A
11:00 pm
Mon, Feb 18
48 °FPassing clouds.3 mph66%30.21 "HgN/A
10:00 pm48 °FPassing clouds.6 mph62%30.24 "HgN/A
9:00 pm50 °FPassing clouds.3 mph67%30.24 "HgN/A
8:00 pm50 °FMostly cloudy.7 mph67%30.24 "HgN/A
7:00 pm50 °FLight rain. Clear.5 mph50%30.24 "HgN/A
6:00 pm48 °FSunny.1 mph58%30.24 "Hg10 mi
5:00 pm48 °FPassing clouds.6 mph54%30.21 "HgN/A
4:00 pm48 °FPartly sunny.5 mph54%30.21 "HgN/A
3:00 pm48 °FPartly sunny.3 mph62%30.21 "HgN/A
2:00 pm48 °FPartly sunny.3 mph58%30.24 "HgN/A
1:00 pm48 °FPartly sunny.5 mph50%30.27 "HgN/A
12:00 pm48 °FSunny.5 mph50%30.27 "Hg10 mi
Weather by CustomWeather, © 2019

See weather overview